Location: Newark
(0.5300°S, 127.4800°E)
Time: 12:02:05
(UTC+00:00)

Vanguard 3 - Pass Details

Date: 24 September 2019
Orbit: 508 x 3262 km, 33.3° (Epoch: 15 October)

Event Time Altitude Azimuth Distance (km) Brightness Sun altitude
Rises 20:31:11 0° 265° (W) 3,866 - -12.7°
Reaches altitude 10° 20:33:47 10° 276° (W) 3,212 - -12.1°
Exits shadow 20:34:41 14° 281° (W) 3,027 9.4 -11.8°
Maximum altitude 20:41:07 32° 337° (NNW) 2,685 9.6 -10.2°
Drops below altitude 10° 20:52:55 10° 34° (NE) 5,192 11.7 -7.3°
Sets 20:58:37 0° 43° (NE) 6,620 12.5 -5.9°
